Temperature
18 19 20 20 22 23 22 23 23 23 23 22 21 22 23 23 22 22 20 20 20 19 18 17 16 15 14 13 13 12 12 12 11 11 10 10 10 10 9 9 9 9 9 9 9 9 9 10 10
18 19 19 21 22 22 22 23 23 23 22 21 21 21 22 22 21 21 20 20 20 19 18 17 16 15 14 13 13 12 12 12 11 11 10 10 10 10 9 9 9 9 9 9 9 9 9 10 10
18 19 20 23 22 22 22 23 23 22 21 21 22 21 22 22 21 20 20 20 20 19 18 17 17 16 15 13 13 12 12 12 11 11 10 10 10 9 9 9 9 9 9 9 9 9 9 9 10
18 19 21 23 22 22 22 23 22 22 21 20 21 22 21 21 20 20 20 20 20 19 18 17 17 16 15 14 13 12 12 11 11 11 10 10 10 9 9 9 9 9 9 9 9 9 9 9 10
18 21 22 22 22 22 23 22 21 22 22 21 21 22 22 21 21 20 20 20 19 19 18 17 16 15 14 14 13 12 12 11 11 11 10 10 9 9 9 9 9 9 9 9 9 9 9 9 10
20 22 22 21 22 22 22 21 21 22 22 21 21 22 22 21 21 20 20 19 19 18 18 17 16 15 14 13 13 12 12 11 11 10 10 10 9 9 9 9 9 9 9 9 9 9 9 9 9
21 22 21 21 21 22 22 21 22 22 22 22 21 22 22 20 20 20 20 19 19 18 18 17 16 15 14 13 13 12 11 11 11 10 10 10 9 9 9 9 9 9 9 9 9 9 10 10 10
20 22 21 21 21 21 21 20 20 21 22 20 20 22 22 20 20 19 19 19 19 18 17 16 15 14 13 13 12 12 11 11 10 10 10 10 9 9 9 9 9 9 9 9 9 9 9 10 9
19 21 21 21 21 21 21 21 21 19 20 20 19 20 20 19 19 19 18 18 18 18 17 16 15 14 13 12 11 11 11 10 10 10 10 9 9 8 8 8 9 9 9 9 9 9 9 9 9
20 21 21 21 21 21 21 20 20 20 21 21 20 19 18 18 18 18 18 17 18 18 17 16 15 14 13 12 11 11 10 10 10 9 9 9 9 9 8 9 9 9 9 9 9 9 9 9 8
20 21 21 20 19 19 19 20 19 20 21 20 19 18 17 18 18 18 17 17 16 16 17 16 16 14 13 12 11 11 10 10 10 9 9 9 9 9 9 8 9 9 9 8 8 8 8 8 8
20 20 19 19 17 18 19 19 19 19 19 17 16 17 17 17 17 17 17 16 16 16 16 16 15 15 14 13 12 11 11 10 10 9 9 9 9 9 9 9 8 8 8 8 8 8 8 8 8
19 19 18 17 16 17 17 18 18 18 17 16 16 16 16 16 17 17 17 17 17 17 16 16 15 15 14 13 12 12 11 10 10 10 10 9 9 9 9 9 9 8 8 8 8 8 8 8 8
18 18 18 18 17 16 17 18 17 18 16 15 15 15 15 16 16 17 17 18 17 17 17 16 16 15 14 13 13 12 11 11 10 10 10 9 9 9 9 8 8 8 8 8 8 7 7 7 7
17 18 20 18 17 17 17 19 18 17 16 16 15 15 14 15 16 17 17 18 17 17 17 16 16 15 14 13 12 12 11 10 10 10 10 9 9 9 8 8 8 8 8 8 7 7 7 7 7
18 19 20 19 18 17 18 20 19 15 16 16 15 15 14 14 15 16 17 17 17 17 17 16 16 15 14 13 12 11 11 10 10 9 9 9 9 8 8 8 8 8 7 7 7 7 7 7 7
19 20 20 19 18 18 19 19 19 15 16 16 16 15 14 14 14 15 16 17 17 17 16 16 16 15 14 13 12 11 11 10 10 10 9 9 9 9 8 8 8 7 7 7 7 7 7 6 6
19 19 19 19 19 17 18 19 18 16 16 16 16 15 14 13 13 14 15 16 16 16 16 16 15 14 13 13 12 11 11 11 10 10 10 9 9 9 8 8 8 7 7 7 7 7 7 6 6
18 18 19 19 17 17 18 18 18 15 16 16 16 15 14 12 13 14 15 15 15 15 15 15 14 14 13 13 12 11 11 11 10 10 10 10 9 9 9 8 8 8 7 7 7 7 6 6 6
17 17 18 18 16 16 17 17 17 16 16 15 15 15 14 13 12 13 14 14 14 14 14 14 14 13 13 12 12 11 11 11 11 10 10 10 9 9 9 8 8 8 7 7 7 7 6 6 6
17 17 18 18 17 15 16 18 16 16 15 14 14 13 13 13 13 12 13 13 14 13 13 13 13 12 12 12 12 11 11 11 10 10 10 10 9 9 9 8 8 8 7 7 7 7 6 6 5
17 17 16 16 17 19 17 19 17 17 16 15 14 14 13 12 12 12 12 13 13 13 12 12 12 12 12 11 11 11 10 10 10 9 9 9 9 9 8 8 8 8 7 7 7 7 6 5 5
17 15 15 16 17 17 17 18 19 17 17 16 15 14 13 12 12 12 12 12 12 12 12 12 11 11 11 11 10 10 10 9 9 9 9 8 8 8 8 8 7 7 7 7 7 6 6 5 5
15 15 14 15 16 17 17 18 19 17 18 17 16 14 12 12 11 11 12 12 12 11 11 11 11 11 10 10 10 9 9 9 8 8 8 8 8 7 7 7 7 7 7 6 6 6 5 5 5
16 17 18 18 18 19 16 16 19 18 18 18 16 14 13 12 11 11 11 11 11 11 11 11 10 10 10 9 9 8 8 8 7 7 7 7 7 7 7 7 6 6 6 6 6 5 5 5 4
16 17 18 18 19 19 15 17 19 16 14 14 15 14 12 11 11 11 11 11 11 11 10 10 10 9 9 8 8 8 7 7 7 6 6 6 6 6 6 6 6 6 5 5 5 5 5 4 4
16 17 17 18 16 17 18 18 17 14 14 13 13 13 12 11 10 10 10 10 10 10 10 10 9 9 8 8 7 7 7 6 6 6 6 6 6 5 5 5 5 5 5 5 4 4 4 3 3
16 16 16 17 17 17 18 18 19 16 15 14 13 13 12 11 10 10 10 10 10 10 9 9 8 8 7 7 7 6 6 6 6 5 5 5 5 5 5 4 4 4 4 4 3 3 3 2 2
14 15 16 17 16 17 18 19 17 17 16 15 14 13 12 11 10 9 9 9 9 9 9 8 8 7 7 6 6 6 5 5 5 5 5 4 4 4 4 4 3 3 3 3 2 2 1 1 1
16 16 16 17 16 16 17 18 15 15 15 14 13 12 11 10 9 9 9 9 9 8 8 7 7 6 6 6 5 5 5 5 5 4 4 4 4 3 3 3 2 2 2 2 1 1 0 -0 -0
Wind_Speed
2 2 3 3 4 5 4 2 1 2 1 1 1 2 4 5 6 4 3 8 7 15 22 24 23 21 19 17 15 14 13 11 11 10 10 10 9 9 9 9 9 9 10 10 10 10 11 11 11
2 2 4 4 6 6 4 2 1 3 2 0 2 4 4 3 2 3 2 8 9 16 22 23 24 22 20 18 16 15 13 12 11 10 10 9 9 8 8 8 8 8 9 9 9 9 9 10 10
2 3 4 5 7 6 3 1 3 4 2 3 3 3 4 3 1 0 3 8 11 16 21 22 24 23 20 19 17 15 14 12 12 10 10 9 8 8 7 7 7 7 7 8 8 8 8 8 8
3 4 4 6 7 5 3 2 4 4 1 3 4 4 3 1 1 3 3 9 11 15 20 21 24 23 21 19 18 16 15 13 12 11 10 9 8 8 7 6 6 6 6 6 6 6 7 7 7
3 4 7 7 6 3 3 3 3 4 2 2 3 5 4 3 2 1 2 9 11 14 19 21 24 23 21 20 18 17 15 14 13 11 10 9 8 8 7 6 6 5 5 5 5 5 5 5 5
3 4 7 8 7 4 4 3 3 3 2 2 4 6 5 4 2 1 3 8 10 13 17 19 23 22 21 20 19 17 16 14 13 12 11 10 9 8 7 7 6 5 4 3 3 3 3 3 3
3 5 6 6 6 6 3 2 3 3 4 3 3 6 4 3 4 1 3 7 9 12 16 17 20 21 21 20 19 18 17 15 14 13 12 10 9 9 8 7 6 5 4 4 3 2 1 1 1
1 4 6 6 7 6 2 2 3 5 6 1 3 6 6 3 3 2 4 6 8 11 14 16 18 19 19 19 19 18 17 16 14 13 12 10 10 9 9 9 8 7 6 5 4 3 3 2 1
2 6 7 6 6 5 2 3 3 3 6 5 5 8 5 2 0 3 5 7 9 11 13 15 16 17 17 17 17 18 17 16 15 13 13 11 10 10 9 9 8 8 7 7 7 6 6 5 4
3 7 8 4 5 5 4 6 7 5 9 9 7 6 3 3 4 6 8 9 12 13 14 14 15 15 15 14 14 15 15 15 15 13 13 12 10 9 8 7 9 9 8 9 8 8 8 8 7
4 7 5 5 5 5 6 7 4 6 9 8 9 10 7 6 6 8 9 9 10 11 12 13 14 15 14 13 13 12 12 12 14 13 12 11 10 9 9 9 9 10 10 10 8 9 9 9 8
4 5 5 4 2 4 6 6 6 7 7 7 8 9 8 7 7 7 8 8 7 9 12 13 14 14 15 13 12 12 11 11 11 12 13 11 9 9 10 9 10 9 9 10 10 9 10 11 11
6 5 4 5 5 7 8 10 8 6 5 5 4 4 5 6 6 5 5 6 7 9 10 12 14 15 14 13 12 12 12 12 12 12 13 13 11 10 11 11 11 11 11 11 11 12 12 13 13
3 5 7 8 8 4 5 4 4 1 3 3 4 6 7 7 7 4 2 4 6 8 9 10 13 14 15 13 12 12 12 12 12 12 14 15 13 12 11 12 12 13 13 13 13 14 13 13 13
3 6 8 3 2 2 3 5 4 2 1 4 6 8 9 10 9 8 4 0 3 5 7 8 10 12 13 14 14 12 11 12 12 13 14 15 15 15 13 12 12 13 14 15 14 15 13 12 13
3 5 4 3 1 2 4 4 4 2 1 4 6 8 10 12 13 11 9 6 4 4 5 6 6 9 11 11 11 11 11 11 12 12 13 15 16 17 15 12 13 15 14 13 12 11 11 12 12
5 4 3 2 1 1 4 5 2 1 0 4 7 9 10 12 14 13 12 10 8 7 6 5 5 6 7 8 8 9 9 10 11 11 12 13 15 16 16 14 14 15 12 11 11 11 12 13 14
4 4 4 4 1 3 7 7 3 1 3 7 8 9 10 12 13 12 13 12 11 9 8 6 4 3 4 4 5 5 6 7 9 10 11 13 13 15 15 14 15 15 10 11 11 13 13 12 13
4 6 8 6 2 4 6 7 4 2 7 10 10 10 11 12 11 12 13 13 13 12 10 8 6 4 3 3 2 3 4 5 6 8 11 13 13 14 14 12 13 12 11 13 14 13 14 12 11
7 8 9 5 2 3 6 6 2 6 8 9 10 10 11 12 12 12 13 13 14 13 11 10 7 5 3 2 1 2 3 4 5 6 9 11 12 13 12 13 11 11 11 14 14 13 11 10 9
9 10 8 5 2 3 4 3 6 7 7 7 7 8 9 10 12 12 12 13 13 12 11 9 8 6 4 2 1 1 2 3 4 4 5 7 10 11 12 13 13 12 12 12 13 13 14 12 11
8 6 7 5 5 3 3 4 9 12 11 10 9 9 9 9 10 10 10 11 11 10 9 9 8 7 5 2 1 1 3 4 5 5 5 7 8 9 11 12 13 12 11 13 13 13 13 13 12
3 3 4 4 5 6 5 6 7 14 16 15 13 11 10 9 9 9 9 9 9 8 8 7 8 7 5 3 2 2 3 5 5 6 7 7 6 7 9 10 10 11 11 13 14 14 14 13 14
6 5 3 2 4 5 5 7 6 12 19 19 16 13 11 9 8 8 7 7 7 6 6 6 7 6 5 4 3 3 5 6 7 7 7 7 6 6 7 8 9 10 10 12 13 13 15 15 16
6 5 4 4 5 3 3 5 5 7 10 17 18 15 12 10 9 8 8 7 6 6 5 5 6 6 5 5 5 5 5 6 7 8 8 8 8 7 8 8 9 10 11 12 12 13 14 16 17
8 6 5 4 3 1 4 6 1 4 3 7 13 14 13 11 9 8 7 6 5 4 4 4 5 5 5 5 5 5 5 5 6 7 8 9 8 9 10 10 11 12 12 12 12 12 14 14 16
6 6 2 2 1 5 5 4 4 4 5 8 12 14 13 11 9 8 6 5 4 3 3 4 4 4 5 6 6 6 7 7 8 9 9 8 9 9 11 12 12 13 13 13 14 13 15 15 16
1 5 4 4 4 5 5 5 4 8 9 11 14 15 13 11 9 8 6 4 3 2 2 3 3 4 5 6 6 6 8 8 9 9 10 11 12 12 13 13 14 14 14 15 15 15 16 17 17
6 5 5 4 3 4 5 3 1 6 9 12 14 14 13 11 10 8 6 4 2 2 2 3 3 4 5 7 7 8 9 9 10 10 11 12 12 13 14 14 15 16 16 16 16 17 18 18 19
6 7 8 6 5 4 5 5 4 4 7 10 12 12 10 10 8 7 5 3 2 1 2 3 4 5 6 7 8 9 10 10 11 12 13 13 14 14 15 15 16 17 17 17 18 19 19 20 20
Wind_Direction
260 265 235 219 219 225 228 208 286 322 278 6 310 264 315 343 351 360 56 158 154 161 167 172 174 172 172 170 166 162 158 154 150 142 133 127 119 111 104 100 94 87 82 78 75 74 73 71 69
243 228 212 214 229 220 199 196 292 337 344 271 218 235 264 289 288 323 96 160 166 165 168 173 174 174 174 173 170 167 164 161 156 149 142 135 128 120 114 106 99 92 85 81 77 76 76 74 72
197 239 207 201 225 228 193 156 338 341 279 240 230 235 281 317 202 51 62 160 168 169 172 173 174 175 176 175 173 171 170 169 164 158 153 147 139 132 124 115 108 100 92 86 80 77 77 76 73
206 195 202 218 214 222 250 302 337 319 227 223 257 253 233 247 19 48 85 163 171 172 175 173 176 177 178 178 177 175 175 175 171 167 163 159 152 143 136 128 120 111 103 94 85 78 76 76 75
222 200 200 213 218 217 252 309 308 300 291 210 248 275 274 135 99 46 137 170 175 173 176 175 179 180 181 181 180 179 180 180 178 176 173 171 164 155 149 147 139 132 122 109 96 84 77 75 76
192 207 215 219 221 235 259 261 265 277 278 241 245 276 286 113 94 55 157 177 179 176 177 176 181 183 184 185 184 184 184 185 186 184 182 181 176 169 166 165 160 157 149 138 122 104 87 72 72
220 214 230 236 243 250 260 208 252 288 283 274 252 278 281 130 58 59 159 173 179 179 181 181 183 187 189 190 189 188 188 190 192 192 190 190 188 184 182 180 181 181 180 175 167 155 132 96 62
269 228 230 240 251 263 222 204 256 282 296 310 239 272 291 61 58 107 150 172 180 184 188 186 187 188 191 193 194 192 193 195 197 198 197 197 198 200 198 195 194 198 201 201 205 211 217 225 248
237 238 242 246 254 264 206 250 271 263 269 252 242 275 326 35 106 180 179 185 189 192 194 193 193 191 193 195 193 195 197 198 200 202 200 201 208 208 206 206 201 212 217 219 222 227 232 234 236
219 241 250 250 252 273 267 273 292 269 268 269 264 265 279 273 249 236 224 210 201 198 196 197 198 195 195 196 196 200 201 202 206 209 205 209 214 217 217 198 209 223 229 232 236 238 237 239 241
226 249 257 243 250 269 274 277 268 269 280 292 302 310 310 284 261 251 244 232 216 203 197 201 201 200 200 199 201 203 204 205 210 213 211 210 213 218 224 223 216 224 229 235 232 235 241 244 249
240 249 253 260 220 248 269 280 270 260 284 330 314 309 306 297 283 266 253 238 218 207 202 202 202 204 205 206 206 207 207 209 212 213 213 212 217 223 230 233 235 235 233 238 242 246 248 251 252
241 261 252 254 257 264 269 266 273 271 316 332 336 341 336 327 315 290 261 239 218 210 206 203 204 206 207 211 214 215 215 215 215 215 215 218 222 228 232 237 239 241 243 242 245 249 253 254 256
257 263 274 277 269 245 247 255 228 239 4 30 47 38 25 14 0 350 287 229 216 209 206 202 205 208 209 212 217 220 222 222 226 223 224 224 229 233 236 242 244 246 246 248 250 254 258 259 258
262 278 275 235 220 205 241 245 198 84 45 71 61 54 46 38 34 30 22 345 202 196 197 199 204 208 212 217 222 227 228 230 231 232 233 231 234 239 240 245 247 248 249 250 253 257 260 261 261
236 254 243 158 188 183 251 251 133 81 58 81 75 67 59 51 47 43 47 62 91 129 159 178 190 205 213 219 225 229 234 236 238 240 241 239 240 243 246 248 250 252 252 250 251 255 257 258 260
228 242 242 206 155 242 256 264 144 38 142 121 101 83 72 62 51 48 54 65 77 92 112 138 170 192 207 218 226 234 239 241 245 245 244 244 245 245 246 249 253 255 251 250 252 254 256 261 263
235 241 252 263 207 277 265 264 278 315 175 142 119 100 84 70 58 55 61 68 74 79 88 101 125 158 182 202 221 233 243 247 248 249 249 249 248 246 247 250 254 255 250 250 251 254 256 259 267
255 256 266 274 297 277 266 275 286 167 158 144 127 111 96 84 77 71 71 73 76 75 77 81 91 109 140 162 197 227 247 252 252 252 255 255 253 251 248 250 255 252 249 252 255 256 259 260 263
233 252 264 267 206 266 281 279 186 156 153 143 133 121 111 104 91 80 77 74 73 72 72 74 77 88 111 143 194 245 270 273 273 267 265 262 259 256 253 253 255 254 253 256 256 255 256 259 250
229 241 258 266 254 215 278 213 165 157 151 143 139 130 121 112 104 94 85 79 74 68 66 68 69 75 82 104 175 255 270 273 273 278 278 274 268 263 257 256 258 257 254 256 256 253 249 253 253
248 238 238 240 264 250 259 242 179 175 174 171 161 150 135 125 114 104 96 86 78 73 70 70 69 67 67 74 28 313 307 309 312 310 298 293 281 271 265 262 261 261 258 257 258 255 252 251 255
218 115 179 226 250 266 224 242 187 180 190 186 176 164 151 139 127 116 106 97 88 80 74 72 71 64 58 51 29 332 318 315 314 312 306 305 296 283 275 270 267 263 261 260 260 259 254 249 250
141 131 123 177 224 246 209 223 206 193 202 189 181 175 166 155 143 130 121 113 99 87 77 71 68 60 48 38 22 355 336 326 321 319 316 313 306 297 288 281 273 269 266 265 263 262 258 254 253
187 218 236 223 218 230 150 234 248 180 197 194 185 180 173 165 159 150 142 128 109 90 75 65 57 48 35 23 10 356 339 327 320 319 316 312 308 304 303 294 284 278 272 269 267 264 262 259 256
198 225 248 269 264 263 194 239 221 138 181 203 191 179 172 171 166 156 146 134 115 92 72 56 42 30 17 5 355 346 336 324 319 314 309 305 303 302 303 296 287 283 280 275 270 267 264 263 260
176 205 266 271 281 271 245 254 248 164 185 187 185 180 178 175 170 162 151 138 117 88 61 39 23 10 0 350 340 335 331 322 315 310 305 301 298 299 297 294 290 286 283 279 276 270 270 268 265
266 154 166 212 248 259 257 249 229 188 187 179 181 182 179 174 170 165 156 142 114 79 50 28 11 356 347 338 334 323 320 318 312 307 304 302 301 299 296 294 292 289 287 283 279 276 274 273 270
163 179 200 204 253 262 272 257 165 191 182 178 180 182 179 177 172 166 157 141 116 82 43 19 0 346 338 333 326 320 318 315 311 306 304 303 301 299 297 295 293 291 289 287 283 279 278 277 275
218 208 195 221 226 230 267 273 106 192 187 183 179 177 174 170 167 162 156 145 121 53 11 355 345 338 333 327 321 318 316 313 310 308 306 304 301 299 296 295 292 290 289 287 285 284 283 280 278
Height
1551 1552 1555 1557 1557 1554 1555 1553 1552 1553 1553 1555 1556 1556 1554 1553 1554 1558 1556 1553 1553 1553 1554 1555 1557 1558 1560 1562 1563 1564 1565 1566 1566 1567 1567 1567 1567 1566 1566 1565 1565 1564 1563 1563 1562 1561 1561 1560 1560
1551 1553 1556 1557 1554 1557 1556 1552 1553 1553 1554 1556 1556 1556 1555 1553 1555 1555 1554 1553 1553 1553 1554 1555 1556 1558 1560 1562 1563 1564 1565 1566 1566 1567 1567 1567 1567 1567 1566 1566 1565 1565 1564 1563 1563 1562 1561 1561 1560
1551 1553 1556 1553 1553 1554 1554 1552 1551 1553 1555 1555 1554 1555 1554 1553 1554 1554 1553 1553 1553 1553 1554 1555 1556 1558 1560 1561 1563 1564 1565 1566 1567 1567 1568 1568 1568 1567 1567 1566 1566 1565 1565 1564 1563 1563 1562 1562 1561
1552 1555 1555 1551 1552 1551 1551 1550 1553 1553 1553 1554 1554 1553 1553 1553 1553 1553 1552 1552 1552 1553 1553 1554 1556 1557 1559 1561 1562 1564 1565 1566 1567 1567 1568 1568 1568 1568 1567 1567 1566 1566 1565 1565 1564 1564 1563 1562 1562
1552 1553 1551 1552 1552 1551 1551 1553 1554 1552 1551 1553 1553 1551 1551 1551 1551 1551 1551 1551 1552 1552 1553 1554 1555 1557 1559 1560 1562 1563 1564 1566 1567 1567 1568 1568 1568 1568 1567 1567 1567 1566 1566 1565 1565 1564 1564 1563 1562
1554 1551 1551 1552 1550 1550 1551 1553 1553 1551 1551 1552 1552 1550 1549 1549 1549 1549 1549 1550 1550 1551 1552 1553 1554 1556 1558 1560 1561 1562 1564 1565 1566 1567 1567 1568 1568 1568 1568 1567 1567 1566 1566 1566 1565 1565 1564 1563 1563
1553 1550 1550 1551 1551 1550 1550 1552 1552 1550 1550 1550 1551 1549 1548 1548 1548 1548 1548 1548 1549 1549 1551 1552 1553 1555 1557 1558 1560 1562 1563 1564 1565 1566 1567 1568 1568 1568 1568 1567 1567 1566 1566 1566 1565 1565 1564 1564 1563
1552 1550 1551 1551 1551 1550 1551 1552 1552 1551 1549 1550 1550 1548 1546 1547 1546 1546 1546 1546 1546 1547 1549 1550 1552 1554 1555 1557 1559 1561 1562 1563 1564 1565 1566 1567 1567 1567 1567 1567 1566 1566 1566 1566 1565 1565 1564 1563 1563
1552 1552 1550 1550 1550 1549 1550 1551 1550 1550 1549 1548 1547 1547 1546 1544 1543 1543 1543 1543 1544 1545 1546 1548 1550 1552 1554 1556 1558 1559 1561 1562 1563 1564 1565 1565 1566 1567 1567 1566 1566 1566 1565 1565 1564 1564 1563 1563 1562
1552 1550 1548 1548 1548 1548 1549 1550 1549 1548 1546 1545 1545 1544 1542 1541 1540 1539 1540 1540 1541 1542 1544 1546 1548 1550 1552 1554 1556 1558 1559 1560 1561 1563 1563 1564 1565 1565 1565 1565 1565 1565 1564 1564 1564 1563 1562 1562 1561
1550 1548 1548 1549 1549 1550 1549 1548 1548 1546 1543 1543 1543 1541 1539 1537 1536 1536 1536 1537 1538 1540 1541 1543 1545 1548 1550 1552 1554 1555 1557 1558 1559 1561 1561 1562 1562 1563 1563 1563 1563 1563 1563 1563 1562 1561 1561 1560 1559
1550 1548 1549 1548 1549 1549 1548 1547 1546 1544 1543 1542 1540 1538 1536 1534 1533 1533 1533 1534 1535 1536 1538 1541 1543 1545 1547 1549 1551 1553 1554 1555 1557 1558 1559 1559 1560 1560 1561 1561 1561 1561 1560 1560 1560 1559 1558 1557 1556
1549 1547 1548 1548 1548 1547 1546 1545 1544 1542 1542 1539 1537 1535 1533 1531 1530 1529 1529 1530 1531 1533 1536 1538 1540 1542 1544 1546 1548 1550 1551 1553 1554 1555 1556 1556 1557 1557 1558 1558 1558 1558 1557 1557 1556 1556 1555 1554 1553
1548 1547 1546 1545 1545 1545 1544 1542 1543 1540 1540 1539 1537 1534 1532 1529 1527 1526 1526 1527 1529 1531 1533 1535 1537 1540 1542 1543 1545 1547 1549 1550 1551 1551 1552 1553 1554 1554 1554 1554 1554 1554 1554 1553 1553 1552 1551 1549 1548
1548 1546 1542 1542 1542 1542 1543 1539 1539 1540 1539 1539 1537 1534 1532 1529 1527 1525 1525 1526 1527 1529 1531 1533 1535 1537 1538 1540 1542 1544 1545 1546 1547 1548 1549 1549 1550 1550 1550 1550 1550 1549 1549 1549 1548 1547 1546 1544 1543
1546 1543 1539 1539 1541 1541 1543 1536 1538 1539 1539 1538 1537 1535 1533 1530 1528 1526 1525 1525 1527 1528 1530 1531 1533 1534 1536 1537 1539 1540 1541 1542 1543 1544 1544 1545 1545 1546 1546 1545 1545 1545 1544 1543 1542 1541 1540 1538 1536
1541 1538 1537 1538 1540 1540 1538 1534 1536 1538 1538 1537 1537 1536 1535 1533 1530 1528 1527 1527 1528 1529 1530 1531 1531 1532 1533 1535 1536 1537 1538 1539 1539 1540 1540 1540 1540 1540 1540 1540 1540 1539 1538 1537 1536 1535 1534 1532 1530
1539 1537 1538 1537 1537 1539 1536 1533 1535 1537 1537 1537 1537 1537 1536 1534 1532 1531 1530 1530 1530 1530 1531 1531 1531 1532 1532 1533 1534 1535 1535 1535 1536 1536 1536 1535 1535 1535 1535 1534 1534 1533 1531 1530 1529 1528 1527 1525 1523
1539 1539 1537 1535 1537 1539 1534 1533 1533 1535 1536 1536 1537 1538 1537 1536 1535 1534 1533 1533 1532 1532 1532 1532 1532 1532 1532 1533 1533 1533 1533 1533 1533 1532 1532 1531 1531 1530 1529 1528 1527 1526 1525 1524 1523 1521 1520 1518 1517
1541 1540 1535 1534 1538 1537 1534 1532 1532 1534 1535 1536 1538 1538 1538 1538 1537 1536 1536 1535 1535 1534 1534 1534 1534 1534 1533 1533 1533 1533 1532 1531 1531 1530 1529 1527 1526 1525 1524 1523 1522 1521 1519 1518 1517 1515 1513 1511 1510
1538 1536 1533 1534 1535 1537 1536 1529 1532 1534 1536 1538 1538 1539 1539 1539 1539 1538 1538 1537 1537 1536 1536 1536 1536 1535 1535 1534 1533 1532 1531 1530 1529 1527 1526 1524 1523 1521 1520 1518 1517 1515 1513 1511 1510 1509 1506 1504 1503
1534 1532 1535 1537 1534 1527 1533 1524 1527 1529 1533 1536 1538 1538 1539 1539 1539 1539 1538 1538 1538 1538 1538 1538 1537 1536 1535 1534 1533 1532 1530 1529 1527 1525 1523 1521 1519 1518 1516 1514 1512 1510 1508 1506 1504 1502 1500 1497 1495
1531 1535 1536 1536 1533 1530 1530 1526 1518 1526 1528 1531 1534 1537 1538 1539 1539 1539 1539 1539 1539 1539 1538 1538 1538 1537 1535 1534 1532 1530 1529 1527 1525 1522 1520 1518 1516 1514 1511 1509 1507 1505 1503 1500 1498 1496 1493 1490 1488
1535 1536 1538 1536 1532 1529 1523 1524 1514 1519 1519 1524 1530 1534 1536 1537 1538 1538 1538 1539 1539 1539 1538 1538 1537 1536 1534 1532 1531 1529 1526 1524 1522 1519 1517 1515 1512 1510 1507 1505 1502 1500 1497 1494 1491 1489 1486 1483 1480
1533 1530 1529 1527 1526 1520 1527 1526 1511 1511 1515 1518 1525 1530 1534 1535 1537 1537 1538 1538 1538 1538 1538 1537 1536 1534 1533 1531 1528 1526 1524 1521 1519 1516 1513 1511 1508 1505 1502 1499 1497 1494 1491 1488 1484 1481 1478 1475 1472
1526 1525 1525 1525 1520 1517 1527 1520 1508 1515 1518 1520 1524 1528 1531 1533 1535 1536 1536 1537 1537 1537 1536 1535 1534 1532 1530 1528 1526 1523 1521 1518 1516 1513 1510 1507 1504 1500 1497 1494 1491 1487 1484 1480 1477 1473 1470 1467 1463
1525 1523 1523 1522 1527 1524 1512 1511 1509 1515 1517 1519 1522 1525 1528 1531 1532 1534 1534 1535 1535 1535 1534 1533 1531 1529 1527 1525 1523 1520 1518 1515 1512 1509 1506 1502 1499 1495 1492 1488 1484 1481 1477 1473 1469 1465 1461 1458 1454
1523 1521 1525 1523 1525 1521 1512 1510 1503 1508 1511 1516 1519 1522 1525 1528 1530 1531 1532 1533 1533 1532 1531 1530 1528 1526 1524 1522 1519 1517 1514 1511 1508 1504 1501 1497 1493 1489 1485 1481 1477 1473 1469 1465 1461 1456 1452 1448 1444
1525 1525 1520 1519 1521 1519 1514 1505 1501 1503 1507 1511 1515 1519 1522 1525 1527 1529 1530 1530 1530 1529 1528 1527 1525 1523 1521 1518 1516 1513 1510 1506 1503 1499 1495 1491 1487 1483 1478 1473 1469 1465 1460 1456 1452 1447 1443 1438 1434
1516 1515 1516 1518 1518 1520 1515 1507 1504 1505 1507 1510 1514 1517 1520 1523 1524 1526 1527 1527 1527 1526 1525 1524 1522 1519 1517 1514 1512 1508 1505 1501 1498 1494 1489 1485 1480 1475 1470 1465 1460 1456 1451 1447 1442 1437 1433 1428 1423